This is the latest recevied weather packets stored in our database for station/object AE5TC. If no packets are shown the sender has not sent any weather packets the latest 10 day(s).
| Time | Temp. | Humidity | Pressure | Rain* | Wind** | Luminosity | Snow |
|---|---|---|---|---|---|---|---|
| 1777725880 | 15° C | 99% | 1009.8 hPa | 6.1 mm | - | 8 W/m² | - |
| 1777725578 | 15° C | 99% | 1009.6 hPa | 3.05 mm | - | 12 W/m² | - |
| 1777725275 | 15° C | 99% | 1009.6 hPa | 1.27 mm | - | 10 W/m² | - |
| 1777724972 | 15° C | 99% | 1009.3 hPa | 0 mm | - | 7 W/m² | - |
| 1777724668 | 15° C | 99% | 1009.2 hPa | 0 mm | - | 8 W/m² | - |
| 1777724366 | 15° C | 99% | 1009.6 hPa | 0 mm | - | 11 W/m² | - |
| 1777724063 | 15° C | 99% | 1009.7 hPa | 0 mm | - | 7 W/m² | - |
| 1777723761 | 15.56° C | 99% | 1009.4 hPa | 0 mm | - | 12 W/m² | - |
| 1777723457 | 15° C | 99% | 1009.2 hPa | 0 mm | - | 11 W/m² | - |
| 1777723154 | 15° C | 99% | 1009.1 hPa | 0 mm | - | 16 W/m² | - |
| 1777722547 | 15° C | 99% | 1009.1 hPa | 0 mm | - | 10 W/m² | - |
| 1777721941 | 15° C | 99% | 1008.8 hPa | 0 mm | - | 12 W/m² | - |
| 1777721639 | 15° C | 99% | 1008.8 hPa | 0 mm | - | 4 W/m² | - |
| 1777721337 | 15° C | 99% | 1008.4 hPa | 0 mm | - | 4 W/m² | - |
| 1777721034 | 15° C | 99% | 1008.1 hPa | 0 mm | - | 7 W/m² | - |
| 1777720731 | 15° C | 99% | 1008.6 hPa | 0 mm | - | 2 W/m² | - |
| 1777720429 | 15° C | 99% | 1008.6 hPa | 1.78 mm | - | 1 W/m² | - |
| 1777720126 | 15° C | 99% | 1008.4 hPa | 1.78 mm | - | 0 W/m² | - |
| 1777719824 | 15° C | 99% | 1008.7 hPa | 3.05 mm | - | 0 W/m² | - |
| 1777719521 | 15° C | 99% | 1008 hPa | 8.89 mm | - | 0 W/m² | - |
| 1777719218 | 15° C | 99% | 1008.4 hPa | 6.1 mm | - | 0 W/m² | - |
| 1777718916 | 15° C | 99% | 1008 hPa | 3.05 mm | - | 0 W/m² | - |
| 1777718613 | 15° C | 99% | 1007.4 hPa | 18.54 mm | - | 0 W/m² | - |
| 1777718310 | 15° C | 99% | 1007.2 hPa | 18.54 mm | - | 0 W/m² | - |
| 1777718007 | 15° C | 99% | 1007 hPa | 7.87 mm | - | 0 W/m² | - |
* Rain latest hour (hover to see other rain measurements)
** Current wind speed in m/s (hover to see current wind gust speed)